Date String (YYYY-MM-DD hh:mm:ss) UTC,Instrument flags,absolute air pressure of the measurement (hPa),sample flow rate (lpm),inlet stack bypass flow (lpm),air temperature of the measurement (°C),ambient temperature measured by the external sensor (°C),aerosol sample conditioner tube jacket temperature (°C),OPC LED temperature (°C),internal box temperature (°C),relative humidity of the measurement (%),span deviation,mass concentration of particles derived from Lorenz-Mie calculation of OPC scattering (μg/m³),mass concentration of particles derived from Lorenz-Mie calculation of OPC scattering (μg/m³),mass concentration of particles derived from Lorenz-Mie calculation of OPC scattering (μg/m³)
DateTimeUTC,F1_M11,P_M11,Q1_M11,Q2_M11,T1_M11,T2_M11,T3_M11,T4_M11,T5_M11,U1_M11,ZSPAN_M11,X0_M11,X2_M11,X1_M11
2024-01-22 19:00:00,SystemResetWarning,0824.3,5.00,000.00,023.8,023.2,000.0,031.9,025.3,14.9,0004.4,0008.63,0004.90,0004.72
2024-01-22 19:01:00,SystemResetWarning,0824.3,5.00,000.00,023.8,023.2,000.0,032.0,025.3,14.9,0004.5,0008.67,0004.89,0004.70
2024-01-22 19:02:00,SystemResetWarning,0824.3,4.99,000.00,023.8,023.2,000.0,032.0,025.3,14.7,0004.7,0008.61,0004.85,0004.68
2024-01-22 19:03:00,SystemResetWarning,0824.3,5.01,000.00,023.8,023.3,000.0,032.0,025.3,14.7,0004.9,0008.58,0004.84,0004.67
2024-01-22 19:04:00,SystemResetWarning,0824.3,5.01,000.00,023.8,023.3,000.0,032.0,025.3,14.7,0004.9,0008.61,0004.81,0004.65
2024-01-22 19:05:00,SystemResetWarning,0824.3,4.99,000.00,023.9,023.3,000.0,032.0,025.3,14.9,0004.7,0008.60,0004.78,0004.62
2024-01-22 19:06:00,SystemResetWarning,0824.3,4.99,000.00,023.9,023.3,000.0,032.1,025.4,14.8,0004.4,0008.50,0004.74,0004.59
2024-01-22 19:07:00,SystemResetWarning,0824.3,5.01,000.00,023.9,023.3,000.0,032.1,025.4,14.8,0004.7,0008.42,0004.70,0004.56
2024-01-22 19:08:00,SystemResetWarning,0824.3,5.01,000.00,023.9,023.3,000.0,032.1,025.4,14.8,0004.6,0008.37,0004.69,0004.54
2024-01-22 19:09:00,SystemResetWarning,0824.3,5.00,000.00,023.9,023.3,000.0,032.1,025.4,14.9,0004.4,0008.37,0004.66,0004.51
2024-01-22 19:10:00,SystemResetWarning,0824.3,4.99,000.00,023.9,023.4,000.0,032.1,025.4,14.9,0004.6,0008.49,0004.63,0004.48
2024-01-22 19:11:00,SystemResetWarning,0824.3,5.00,000.00,024.0,023.4,000.0,032.1,025.5,14.8,0004.5,0007.82,0004.61,0004.47
2024-01-22 19:12:00,SystemResetWarning,0824.3,5.01,000.00,024.0,023.4,000.0,032.2,025.5,14.9,0004.4,0007.70,0004.61,0004.46
2024-01-22 19:13:00,SystemResetWarning,0824.2,5.00,000.00,024.0,023.4,000.0,032.2,025.5,15.0,0004.1,0007.78,0004.62,0004.45
2024-01-22 19:14:00,SystemResetWarning,0824.2,5.01,000.00,024.0,023.4,000.0,032.2,025.5,15.1,0004.0,0007.85,0004.61,0004.43
2024-01-22 19:15:00,SystemResetWarning,0824.2,5.00,000.00,024.0,023.4,000.0,032.2,025.5,15.1,0003.8,0007.75,0004.60,0004.43
2024-01-22 19:16:00,SystemResetWarning,0824.2,4.99,000.00,024.1,023.5,000.0,032.2,025.5,15.0,0003.7,0007.79,0004.60,0004.40
2024-01-22 19:17:00,SystemResetWarning,0824.1,4.99,000.00,024.1,023.5,000.0,032.2,025.5,14.8,0003.9,0007.90,0004.62,0004.41
2024-01-22 19:18:00,SystemResetWarning,0824.1,5.00,000.00,024.1,023.5,000.0,032.3,025.5,14.8,0003.7,0007.98,0004.66,0004.42
2024-01-22 19:19:00,SystemResetWarning,0824.1,5.00,000.00,024.1,023.5,000.0,032.3,025.5,14.9,0003.7,0008.40,0004.69,0004.43
2024-01-22 19:20:00,SystemResetWarning,0824.1,4.99,000.00,024.1,023.5,000.0,032.3,025.5,14.6,0004.1,0008.66,0004.72,0004.47
2024-01-22 19:21:00,SystemResetWarning,0824.2,5.00,000.00,024.1,023.5,000.0,032.3,025.6,14.5,0004.0,0008.66,0004.73,0004.49
2024-01-22 19:22:00,SystemResetWarning,0824.2,5.00,000.00,024.1,023.5,000.0,032.3,025.6,14.7,0004.2,0009.22,0004.78,0004.52
2024-01-22 19:23:00,SystemResetWarning,0824.2,5.00,000.00,024.2,023.6,000.0,032.3,025.6,14.7,0004.2,0009.30,0004.81,0004.55
2024-01-22 19:24:00,SystemResetWarning,0824.2,4.99,000.00,024.2,023.6,000.0,032.4,025.6,14.7,0004.4,0009.32,0004.83,0004.59
2024-01-22 19:25:00,SystemResetWarning,0824.1,5.00,000.00,024.2,023.6,000.0,032.4,025.6,14.7,0004.6,0009.34,0004.90,0004.65
2024-01-22 19:26:00,SystemResetWarning,0824.1,5.00,000.00,024.2,023.6,000.0,032.4,025.6,14.5,0005.0,0009.48,0004.97,0004.70
2024-01-22 19:27:00,SystemResetWarning,0824.1,5.01,000.00,024.2,023.6,000.0,032.4,025.7,14.6,0005.2,0009.65,0005.05,0004.77
2024-01-22 19:28:00,SystemResetWarning,0824.2,5.00,000.00,024.2,023.6,000.0,032.4,025.7,14.8,0005.2,0009.73,0005.10,0004.82
2024-01-22 19:29:00,SystemResetWarning,0824.1,5.01,000.00,024.2,023.7,000.0,032.4,025.7,14.8,0005.2,0010.33,0005.14,0004.88
2024-01-22 19:30:00,SystemResetWarning,0824.1,5.00,000.00,024.3,023.7,000.0,032.5,025.7,14.8,0005.0,0010.13,0005.20,0004.95
2024-01-22 19:31:00,SystemResetWarning,0824.1,5.00,000.00,024.3,023.7,000.0,032.5,025.7,15.0,0004.9,0010.09,0005.35,0005.07
2024-01-22 19:32:00,SystemResetWarning,0824.2,5.00,000.00,024.3,023.7,000.0,032.5,025.7,14.6,0004.7,0010.16,0005.52,0005.21
2024-01-22 19:33:00,SystemResetWarning,0824.2,5.00,000.00,024.3,023.7,000.0,032.5,025.8,14.7,0004.5,0009.92,0005.65,0005.33
2024-01-22 19:34:00,SystemResetWarning,0824.2,5.00,000.00,024.3,023.7,000.0,032.5,025.7,14.7,0004.3,0009.96,0005.77,0005.45
2024-01-22 19:35:00,SystemResetWarning,0824.2,5.00,000.00,024.3,023.7,000.0,032.5,025.8,14.9,0004.3,0010.21,0005.94,0005.59
2024-01-22 19:36:00,SystemResetWarning,0824.1,5.00,000.00,024.4,023.8,000.0,032.6,025.8,14.9,0004.1,0010.33,0006.04,0005.68
2024-01-22 19:37:00,SystemResetWarning,0824.2,5.00,000.00,024.4,023.8,000.0,032.6,025.9,14.8,0004.0,0010.46,0006.16,0005.79
2024-01-22 19:38:00,SystemResetWarning,0824.1,5.00,000.00,024.4,023.8,000.0,032.6,025.9,14.7,0004.0,0010.56,0006.26,0005.89
2024-01-22 19:39:00,SystemResetWarning,0824.1,5.00,000.00,024.4,023.8,000.0,032.6,025.9,14.7,0003.7,0010.73,0006.35,0005.98
2024-01-22 19:40:00,SystemResetWarning,0824.0,5.00,000.00,024.4,023.8,000.0,032.6,025.9,14.8,0003.6,0010.81,0006.46,0006.08
2024-01-22 19:41:00,SystemResetWarning,0824.0,5.00,000.00,024.4,023.8,000.0,032.6,025.9,14.9,0003.8,0011.14,0006.53,0006.13
2024-01-22 19:42:00,SystemResetWarning,0824.0,5.00,000.00,024.4,023.8,000.0,032.6,025.9,15.0,0003.8,0011.53,0006.51,0006.14
2024-01-22 19:43:00,SystemResetWarning,0824.0,5.00,000.00,024.4,023.8,000.0,032.7,025.9,14.8,0004.1,0011.77,0006.50,0006.13
2024-01-22 19:44:00,SystemResetWarning,0824.0,5.00,000.00,024.5,023.9,000.0,032.7,025.9,14.9,0004.0,0011.83,0006.51,0006.14
2024-01-22 19:45:00,SystemResetWarning,0824.0,5.01,000.00,024.5,023.9,000.0,032.7,026.0,15.1,0003.9,0012.56,0006.53,0006.16
2024-01-22 19:46:00,SystemResetWarning,0824.0,5.00,000.00,024.5,023.9,000.0,032.7,025.9,14.9,0003.8,0012.68,0006.54,0006.16
2024-01-22 19:47:00,SystemResetWarning,0824.0,4.99,000.00,024.5,023.9,000.0,032.7,026.0,15.1,0003.7,0012.80,0006.52,0006.16
2024-01-22 19:48:00,SystemResetWarning,0824.0,5.00,000.00,024.5,023.9,000.0,032.7,026.0,15.1,0003.4,0013.33,0006.55,0006.17
2024-01-22 19:49:00,SystemResetWarning,0824.0,5.00,000.00,024.5,023.9,000.0,032.7,026.0,15.3,0003.5,0013.35,0006.56,0006.17
2024-01-22 19:50:00,SystemResetWarning,0824.0,5.00,000.00,024.5,023.9,000.0,032.8,026.0,15.2,0003.7,0013.37,0006.58,0006.17
2024-01-22 19:51:00,SystemResetWarning,0824.0,5.00,000.00,024.6,023.9,000.0,032.8,026.0,15.0,0003.9,0013.00,0006.59,0006.16
2024-01-22 19:52:00,SystemResetWarning,0823.9,5.00,000.00,024.6,023.9,000.0,032.8,026.0,15.0,0003.9,0012.70,0006.59,0006.17
2024-01-22 19:53:00,SystemResetWarning,0823.9,5.00,000.00,024.6,023.9,000.0,032.8,026.0,14.7,0004.0,0012.88,0006.59,0006.16
2024-01-22 19:54:00,SystemResetWarning,0823.9,5.00,000.00,024.6,024.0,000.0,032.8,026.0,14.8,0003.8,0012.62,0006.56,0006.15
2024-01-22 19:55:00,SystemResetWarning,0823.9,5.00,000.00,024.6,024.0,000.0,032.8,026.0,15.0,0004.2,0012.43,0006.52,0006.12
2024-01-22 19:56:00,SystemResetWarning,0823.9,5.00,000.00,024.6,024.0,000.0,032.8,026.0,14.8,0004.4,0011.79,0006.49,0006.10
2024-01-22 19:57:00,SystemResetWarning,0823.9,5.00,000.00,024.6,024.0,000.0,032.8,026.1,14.4,0004.4,0012.18,0006.43,0006.06
2024-01-22 19:58:00,SystemResetWarning,0823.8,5.00,000.00,024.6,024.0,000.0,032.9,026.1,14.5,0004.4,0012.88,0006.43,0006.06
2024-01-22 19:59:00,SystemResetWarning,0823.9,5.00,000.00,024.6,024.0,000.0,032.9,026.1,14.4,0004.5,0012.37,0006.41,0006.05
